Regional Weather Roundup
Issued by NWS Newport/Morehead, NC

Current Version | Previous Version | Text Only | Print | Product List | Glossary Off
Versions: 1 2 3 4 5 6 7 8 9 10 11 12 13 14 15 16 17 18 19 20 21 22 23 24 25 26 27 28 29 30 31 32 33 34 35 36 37 38 39 40 41 42 43 44 45 46 47 48 49 50
000 ASUS42 KMHX 300425 RWRMHX WEATHER ROUNDUP FOR EASTERN NORTH CAROLINA NATIONAL WEATHER SERVICE NEWPORT/MOREHEAD CITY NC 1200 AM EDT SUN APR 30 2017 NOTE: "FAIR" INDICATES FEW OR NO CLOUDS BELOW 12,000 FEET WITH NO SIGNIFICANT WEATHER AND/OR OBSTRUCTIONS TO VISIBILITY NCZ015>017-031-032-045>047-102-103-300500- NORTH COAST CITY SKY/WX TMP DP RH WIND PRES REMARKS EDENTON CLEAR 74 70 86 SW12 30.17F ELIZABETH CITY CLEAR 74 71 91 SW14G24 30.15S KITTY HAWK CLEAR 73 69 86 SW7G16 30.15S MANTEO CLEAR 73 70 91 SW14 30.17F $$ NCZ045>047-081-094-103-104-300500- CENTRAL COAST CITY SKY/WX TMP DP RH WIND PRES REMARKS FRISCO CLEAR 74 71 91 SW9 30.21F FOG $$ NCZ095-097-098-100-101-300500- SOUTHERN COAST CITY SKY/WX TMP DP RH WIND PRES REMARKS BEAUFORT CLEAR 73 73 100 SW12 30.21S CEDAR ISLAND NOT AVBL JACKSONVILLE PTCLDY 72 72 100 S6 30.19F PINEY ISLAND CLEAR N/A N/A N/A S9 30.20F WILMINGTON PTCLDY 73 71 93 S7 30.21F $$ NCZ011>013-027>030-043-044-078>080-089-090>093-098-300500- COASTAL PLAIN CITY SKY/WX TMP DP RH WIND PRES REMARKS AHOSKIE N/A 73 71 92 S7 30.16S CLINTON PTCLDY 72 71 97 CALM 30.19S ELIZABETHTOWN MOCLDY 72 71 96 S5 30.20S GOLDSBORO PTCLDY 74 73 99 S8 30.17S GREENVILLE CLEAR 73 72 94 SW9 30.19S HAVELOCK NOT AVBL KENANSVILLE CLOUDY 72 70 94 SW3 30.20R KINSTON MOCLDY 73 68 86 S7 30.19F NEW BERN CLEAR 71 70 96 SW6 30.21F RICHLANDS PTCLDY 70 69 97 S7 30.20F ROCKY MOUNT CLEAR 75 71 87 S9 30.17S WASHINGTON CLEAR 72 69 91 SW5 30.19S WHITEVILLE CLOUDY 72 70 94 S5 30.20S $$ AMZ130-135-150-152-154-156-158-170-250-252-270-ANZ085-086-088-633-658-670-300500- MARINE OBSERVATIONS STATION/POSITION TIME TEMP WIND PRES WAVE SWELL AIR SEA DIR/SP/G HT/PER HT/PER (UTC) (F) (DEG/KT/KT) (MB) (FT/S) (FT/S) CHESAPEAKE LIGHT NOT AVBL 64 E VA BEACH 0350 63 58 220/ 12/ 14 1021.4 3/ 5 2/ 6 DUCK 0400 74 58 220/ 18/ 22 1020.6 2 E DUCK 0400 59 N/A 2/ 7 OREGON INLET 0400 74 78 210/ 21/ 23 1021.5 13E OREGON INLT 0348 64 N/A 3/ 5 2/ 7 HATTERAS CG 0400 73 75 210/ 8/ 11 1022.8 DIAMOND BUOY 0350 76 75 230/ 14/ 16 1023.1 3/ 5 2/ 7 CAPE LOOKOUT 0400 73 210/ 7/ 9 1022.9 BEAUFORT LAB 0400 73 72 200/ 10/ 12 1022.2 30 SE NEW RVR IN 0408 72 220/ 8/ 10 1023.3 30 SE NEW RVR IN 0413 73 N/A 3/ 7 27 SE WRIGHTSVLE 0408 74 74 190/ 6/ 10 1022.8 5 SE WRIGHTSVLE 0308 73 71 190/ 8/ 12 1023.1 225 S CAPE HAT 0350 74 76 170/ 12/ 12 1024.7 3/ 7 2/ 7 41 SE CHARLESTON 0400 76 76 150/ 10/ 14 1022.1 $$

USA.gov is the U.S. government's official web portal to all federal, state and local government web resources and services.